Location: Fontevrault
(47.1823°N, 0.0493°E)
Time: 10:15:31
(UTC+00:00)

ALOS 2 - Pass Details

Date: 16 June 2021
Orbit: 630 x 632 km, 97.9° (Epoch: 27 July)

Event Time Altitude Azimuth Distance (km) Brightness Sun altitude
Exits shadow 23:49:07 39° 214° (SW) 960 3.1 -19.4°
Maximum altitude 23:50:18 50° 260° (W) 809 3.0 -19.4°
Drops below altitude 10° 23:54:36 10° 337° (NNW) 2,025 6.2 -19.4°
Sets 23:56:53 0° 342° (NNW) 2,938 7.4 -19.4°
